Time,TemperatureF,DewpointF,PressureIn,WindDirection,WindDirectionDegrees,WindSpeedMPH,WindSpeedGustMPH,Humidity,HourlyPrecipIn,Conditions,Clouds,dailyrainin,SoftwareType,DateUTC
2013-02-04 00:03:00,49.8,24.6,29.21,SSE,150,3.6,8.5,37,0.00,,,0.00,WSDL version 426,2013-02-04 06:03:00,
2013-02-04 00:08:00,49.6,24.4,29.21,SE,145,3.0,5.8,37,0.00,,,0.00,WSDL version 426,2013-02-04 06:08:00,
2013-02-04 00:13:00,49.6,24.4,29.18,SSE,149,3.5,6.3,37,0.00,,,0.00,WSDL version 426,2013-02-04 06:13:00,
2013-02-04 00:18:00,49.6,24.4,29.18,SE,135,2.4,6.3,37,0.00,,,0.00,WSDL version 426,2013-02-04 06:18:00,
2013-02-04 00:23:00,49.4,24.2,29.18,SE,127,1.7,3.8,37,0.00,,,0.00,WSDL version 426,2013-02-04 06:23:00,
2013-02-04 00:28:00,49.1,23.9,29.18,SE,135,1.1,3.1,37,0.00,,,0.00,WSDL version 426,2013-02-04 06:28:00,
2013-02-04 00:33:00,48.7,23.6,29.18,SE,127,0.9,2.9,37,0.00,,,0.00,WSDL version 426,2013-02-04 06:33:00,
2013-02-04 00:38:00,48.5,23.4,29.18,ESE,118,1.5,3.1,37,0.00,,,0.00,WSDL version 426,2013-02-04 06:38:00,
2013-02-04 00:43:00,48.4,23.4,29.18,SE,132,2.7,4.9,37,0.00,,,0.00,WSDL version 426,2013-02-04 06:43:00,
2013-02-04 00:48:00,48.6,23.5,29.18,SE,138,2.4,5.6,37,0.00,,,0.00,WSDL version 426,2013-02-04 06:48:00,
2013-02-04 00:53:00,48.8,23.7,29.18,SSE,150,2.4,5.6,37,0.00,,,0.00,WSDL version 426,2013-02-04 06:53:00,
2013-02-04 00:58:00,49.1,23.9,29.18,SSE,151,1.8,5.8,37,0.00,,,0.00,WSDL version 426,2013-02-04 06:58:00,
2013-02-04 01:03:00,49.4,24.2,29.18,SE,141,3.0,5.8,37,0.00,,,0.00,WSDL version 426,2013-02-04 07:03:00,
2013-02-04 01:08:00,49.5,24.3,29.18,SE,143,2.5,4.9,37,0.00,,,0.00,WSDL version 426,2013-02-04 07:08:00,
2013-02-04 01:13:00,49.5,24.3,29.18,SSE,153,2.6,3.8,37,0.00,,,0.00,WSDL version 426,2013-02-04 07:13:00,
2013-02-04 01:18:00,49.6,24.4,29.18,SSE,150,3.1,4.0,37,0.00,,,0.00,WSDL version 426,2013-02-04 07:18:00,
2013-02-04 01:23:00,49.8,24.6,29.18,SE,146,3.6,5.4,37,0.00,,,0.00,WSDL version 426,2013-02-04 07:23:00,
2013-02-04 01:28:00,50.0,24.7,29.18,SSE,149,3.0,6.0,37,0.00,,,0.00,WSDL version 426,2013-02-04 07:28:00,
2013-02-04 01:33:00,50.0,24.8,29.18,SSE,158,3.3,6.0,37,0.00,,,0.00,WSDL version 426,2013-02-04 07:33:00,
2013-02-04 01:38:00,50.0,24.8,29.18,SSE,158,3.5,7.6,37,0.00,,,0.00,WSDL version 426,2013-02-04 07:38:00,
2013-02-04 01:43:00,50.1,24.9,29.15,SSE,155,4.6,7.6,37,0.00,,,0.00,WSDL version 426,2013-02-04 07:43:00,
2013-02-04 01:48:00,50.2,24.9,29.15,South,175,4.1,6.5,37,0.00,,,0.00,WSDL version 426,2013-02-04 07:48:00,
2013-02-04 01:53:00,50.3,25.0,29.15,SSE,166,3.6,6.5,37,0.00,,,0.00,WSDL version 426,2013-02-04 07:53:00,
2013-02-04 01:58:00,50.4,25.1,29.18,SSE,158,3.4,7.2,37,0.00,,,0.00,WSDL version 426,2013-02-04 07:58:00,
2013-02-04 02:03:00,50.5,25.2,29.18,South,170,3.8,7.6,37,0.00,,,0.00,WSDL version 426,2013-02-04 08:03:00,
2013-02-04 02:08:00,50.7,25.4,29.18,South,190,3.8,7.6,37,0.00,,,0.00,WSDL version 426,2013-02-04 08:08:00,
2013-02-04 02:13:00,50.8,25.5,29.15,South,180,4.3,7.4,37,0.00,,,0.00,WSDL version 426,2013-02-04 08:13:00,
2013-02-04 02:18:00,50.9,25.6,29.15,SSE,166,3.2,6.9,37,0.00,,,0.00,WSDL version 426,2013-02-04 08:18:00,
2013-02-04 02:23:00,51.1,25.7,29.15,South,188,3.8,6.5,37,0.00,,,0.00,WSDL version 426,2013-02-04 08:23:00,
2013-02-04 02:28:00,51.2,25.8,29.15,South,183,5.2,6.7,37,0.00,,,0.00,WSDL version 426,2013-02-04 08:28:00,
2013-02-04 02:33:00,51.4,26.0,29.15,SSE,149,5.3,8.7,37,0.00,,,0.00,WSDL version 426,2013-02-04 08:33:00,
2013-02-04 02:38:00,51.6,26.2,29.15,SSE,155,4.3,8.7,37,0.00,,,0.00,WSDL version 426,2013-02-04 08:38:00,
2013-02-04 02:43:00,51.7,25.8,29.15,SSE,149,5.5,8.7,36,0.00,,,0.00,WSDL version 426,2013-02-04 08:43:00,
2013-02-04 02:48:00,51.8,25.7,29.15,SSE,160,4.9,8.7,36,0.00,,,0.00,WSDL version 426,2013-02-04 08:48:00,
2013-02-04 02:53:00,51.8,25.7,29.15,SSE,160,5.6,10.3,36,0.00,,,0.00,WSDL version 426,2013-02-04 08:53:00,
2013-02-04 02:58:00,51.9,25.8,29.15,SSE,166,5.1,10.3,36,0.00,,,0.00,WSDL version 426,2013-02-04 08:58:00,
2013-02-04 03:03:00,51.8,25.7,29.15,SE,145,4.8,8.7,36,0.00,,,0.00,WSDL version 426,2013-02-04 09:03:00,
2013-02-04 03:08:00,51.9,25.8,29.15,SSE,155,5.1,8.7,36,0.00,,,0.00,WSDL version 426,2013-02-04 09:08:00,
2013-02-04 03:13:00,51.8,25.7,29.12,SSE,165,4.1,8.7,36,0.00,,,0.00,WSDL version 426,2013-02-04 09:13:00,
2013-02-04 03:18:00,51.8,25.7,29.12,SSE,163,4.4,8.7,36,0.00,,,0.00,WSDL version 426,2013-02-04 09:18:00,
2013-02-04 03:23:00,51.7,25.6,29.12,SSE,166,4.8,7.8,36,0.00,,,0.00,WSDL version 426,2013-02-04 09:23:00,
2013-02-04 03:28:00,51.6,25.6,29.12,SE,146,4.0,8.7,36,0.00,,,0.00,WSDL version 426,2013-02-04 09:28:00,
2013-02-04 03:33:00,51.6,25.6,29.12,SSE,160,5.1,8.7,36,0.00,,,0.00,WSDL version 426,2013-02-04 09:33:00,
2013-02-04 03:38:00,51.4,25.4,29.12,SSE,160,4.5,7.2,36,0.00,,,0.00,WSDL version 426,2013-02-04 09:38:00,
2013-02-04 03:43:00,51.4,25.4,29.12,SE,146,4.6,7.2,36,0.00,,,0.00,WSDL version 426,2013-02-04 09:43:00,
2013-02-04 03:48:00,51.4,25.4,29.12,SSE,163,5.4,8.1,36,0.00,,,0.00,WSDL version 426,2013-02-04 09:48:00,
2013-02-04 03:53:00,51.4,25.4,29.12,SE,143,6.2,10.7,36,0.00,,,0.00,WSDL version 426,2013-02-04 09:53:00,
2013-02-04 03:58:00,51.4,25.4,29.09,SSE,153,5.9,10.7,36,0.00,,,0.00,WSDL version 426,2013-02-04 09:58:00,
2013-02-04 04:03:00,51.5,25.4,29.09,South,174,5.1,10.5,36,0.00,,,0.00,WSDL version 426,2013-02-04 10:03:00,
2013-02-04 04:08:00,51.5,25.4,29.09,SSE,155,4.5,8.5,36,0.00,,,0.00,WSDL version 426,2013-02-04 10:08:00,
2013-02-04 04:13:00,51.4,25.4,29.12,SSE,168,4.7,8.5,36,0.00,,,0.00,WSDL version 426,2013-02-04 10:13:00,
2013-02-04 04:18:00,51.4,25.4,29.12,SSE,152,5.0,8.5,36,0.00,,,0.00,WSDL version 426,2013-02-04 10:18:00,
2013-02-04 04:23:00,51.4,25.4,29.12,SSE,153,4.9,10.5,36,0.00,,,0.00,WSDL version 426,2013-02-04 10:23:00,
2013-02-04 04:28:00,51.4,25.6,29.12,SE,135,4.6,10.5,37,0.00,,,0.00,WSDL version 426,2013-02-04 10:28:00,
2013-02-04 04:33:00,51.5,26.1,29.12,South,172,5.5,7.8,37,0.00,,,0.00,WSDL version 426,2013-02-04 10:33:00,
2013-02-04 04:38:00,51.6,26.2,29.12,South,188,4.5,7.8,37,0.00,,,0.00,WSDL version 426,2013-02-04 10:38:00,
2013-02-04 04:43:00,51.7,26.1,29.12,South,175,6.1,10.7,36,0.00,,,0.00,WSDL version 426,2013-02-04 10:43:00,
2013-02-04 04:48:00,52.0,25.8,29.12,SSE,168,6.2,10.7,36,0.00,,,0.00,WSDL version 426,2013-02-04 10:48:00,
2013-02-04 04:53:00,52.2,26.0,29.12,South,177,5.4,9.6,36,0.00,,,0.00,WSDL version 426,2013-02-04 10:53:00,
2013-02-04 04:58:00,52.2,26.0,29.12,South,170,4.4,10.5,36,0.00,,,0.00,WSDL version 426,2013-02-04 10:58:00,
2013-02-04 05:03:00,52.3,26.2,29.12,South,188,4.0,10.5,36,0.00,,,0.00,WSDL version 426,2013-02-04 11:03:00,
2013-02-04 05:08:00,52.2,26.1,29.12,South,175,3.1,6.3,36,0.00,,,0.00,WSDL version 426,2013-02-04 11:08:00,
2013-02-04 05:13:00,52.2,26.0,29.12,SSE,158,2.8,4.9,36,0.00,,,0.00,WSDL version 426,2013-02-04 11:13:00,
2013-02-04 05:18:00,52.0,25.9,29.12,South,172,2.5,6.3,36,0.00,,,0.00,WSDL version 426,2013-02-04 11:18:00,
2013-02-04 05:23:00,52.0,25.9,29.12,SSE,158,3.4,6.3,36,0.00,,,0.00,WSDL version 426,2013-02-04 11:23:00,
2013-02-04 05:28:00,52.1,26.0,29.12,SSE,158,3.7,6.7,36,0.00,,,0.00,WSDL version 426,2013-02-04 11:28:00,
2013-02-04 05:33:00,52.0,25.9,29.12,SSE,165,3.4,6.7,36,0.00,,,0.00,WSDL version 426,2013-02-04 11:33:00,
2013-02-04 05:38:00,52.0,25.9,29.12,SSE,161,3.2,6.7,36,0.00,,,0.00,WSDL version 426,2013-02-04 11:38:00,
2013-02-04 05:43:00,52.2,26.0,29.12,SSE,158,3.8,6.7,36,0.00,,,0.00,WSDL version 426,2013-02-04 11:43:00,
2013-02-04 05:48:00,52.2,26.1,29.12,South,180,3.8,6.5,36,0.00,,,0.00,WSDL version 426,2013-02-04 11:48:00,
2013-02-04 05:53:00,52.3,26.2,29.12,SSE,158,3.8,6.0,36,0.00,,,0.00,WSDL version 426,2013-02-04 11:53:00,
2013-02-04 05:58:00,52.4,26.2,29.09,SSE,163,4.0,7.8,36,0.00,,,0.00,WSDL version 426,2013-02-04 11:58:00,
2013-02-04 06:03:00,52.7,26.5,29.09,South,174,4.9,13.2,36,0.00,,,0.00,WSDL version 426,2013-02-04 12:03:00,
2013-02-04 06:08:00,53.3,26.9,29.09,SSE,163,5.8,13.2,35,0.00,,,0.00,WSDL version 426,2013-02-04 12:08:00,
2013-02-04 06:13:00,53.9,26.6,29.09,South,180,9.2,12.5,34,0.00,,,0.00,WSDL version 426,2013-02-04 12:13:00,
2013-02-04 06:18:00,54.5,26.7,29.09,South,178,6.9,13.6,34,0.00,,,0.00,WSDL version 426,2013-02-04 12:18:00,
2013-02-04 06:23:00,54.9,26.3,29.09,South,177,7.7,14.5,33,0.00,,,0.00,WSDL version 426,2013-02-04 12:23:00,
2013-02-04 06:28:00,55.1,26.6,29.09,South,170,6.3,14.5,33,0.00,,,0.00,WSDL version 426,2013-02-04 12:28:00,
2013-02-04 06:33:00,55.2,26.6,29.09,South,169,5.9,11.0,33,0.00,,,0.00,WSDL version 426,2013-02-04 12:33:00,
2013-02-04 06:38:00,55.2,26.6,29.09,South,177,6.5,11.0,33,0.00,,,0.00,WSDL version 426,2013-02-04 12:38:00,
2013-02-04 06:43:00,55.2,26.6,29.09,SSE,163,7.5,12.3,33,0.00,,,0.00,WSDL version 426,2013-02-04 12:43:00,
2013-02-04 06:48:00,55.2,26.6,29.09,South,183,7.1,12.3,33,0.00,,,0.00,WSDL version 426,2013-02-04 12:48:00,
2013-02-04 06:53:00,55.4,26.8,29.09,SSE,158,7.4,10.7,33,0.00,,,0.00,WSDL version 426,2013-02-04 12:53:00,
2013-02-04 06:58:00,55.3,26.7,29.09,South,177,5.7,10.3,33,0.00,,,0.00,WSDL version 426,2013-02-04 12:58:00,
2013-02-04 07:03:00,55.4,26.8,29.09,South,183,6.4,13.2,33,0.00,,,0.00,WSDL version 426,2013-02-04 13:03:00,
2013-02-04 07:08:00,55.2,26.6,29.09,SSW,197,5.8,13.2,33,0.00,,,0.00,WSDL version 426,2013-02-04 13:08:00,
2013-02-04 07:13:00,55.2,27.2,29.12,SSW,198,6.2,13.2,34,0.00,,,0.00,WSDL version 426,2013-02-04 13:13:00,
2013-02-04 07:18:00,55.0,27.1,29.12,SSW,195,6.3,13.2,34,0.00,,,0.00,WSDL version 426,2013-02-04 13:18:00,
2013-02-04 07:23:00,54.7,26.9,29.12,South,174,6.6,12.1,34,0.00,,,0.00,WSDL version 426,2013-02-04 13:23:00,
2013-02-04 07:28:00,54.5,27.4,29.09,South,175,5.2,14.3,35,0.00,,,0.00,WSDL version 426,2013-02-04 13:28:00,
2013-02-04 07:33:00,54.2,27.2,29.09,South,186,5.6,14.3,35,0.00,,,0.00,WSDL version 426,2013-02-04 13:33:00,
2013-02-04 07:38:00,54.0,27.0,29.09,South,183,5.2,12.8,35,0.00,,,0.00,WSDL version 426,2013-02-04 13:38:00,
2013-02-04 07:43:00,53.9,26.9,29.12,South,180,5.8,12.8,35,0.00,,,0.00,WSDL version 426,2013-02-04 13:43:00,
2013-02-04 07:48:00,53.6,27.2,29.12,South,174,4.5,8.7,36,0.00,,,0.00,WSDL version 426,2013-02-04 13:48:00,
2013-02-04 07:53:00,53.3,27.0,29.12,South,177,4.0,8.1,36,0.00,,,0.00,WSDL version 426,2013-02-04 13:53:00,
2013-02-04 07:58:00,53.1,26.9,29.12,South,169,5.0,8.1,36,0.00,,,0.00,WSDL version 426,2013-02-04 13:58:00,
2013-02-04 08:03:00,53.1,27.4,29.12,South,170,5.9,9.6,37,0.00,,,0.00,WSDL version 426,2013-02-04 14:03:00,
2013-02-04 08:08:00,53.2,27.7,29.12,South,183,5.3,9.6,37,0.00,,,0.00,WSDL version 426,2013-02-04 14:08:00,
2013-02-04 08:13:00,53.2,27.7,29.12,South,174,7.4,9.8,37,0.00,,,0.00,WSDL version 426,2013-02-04 14:13:00,
2013-02-04 08:18:00,53.3,27.7,29.12,South,188,6.1,10.7,37,0.00,,,0.00,WSDL version 426,2013-02-04 14:18:00,
2013-02-04 08:23:00,53.5,28.3,29.12,SSW,203,5.0,10.7,38,0.00,,,0.00,WSDL version 426,2013-02-04 14:23:00,
2013-02-04 08:28:00,53.7,28.0,29.12,South,191,6.0,12.5,37,0.00,,,0.00,WSDL version 426,2013-02-04 14:28:00,
2013-02-04 08:33:00,53.9,28.8,29.12,South,170,4.9,12.5,38,0.00,,,0.00,WSDL version 426,2013-02-04 14:33:00,
2013-02-04 08:38:00,54.1,29.0,29.12,SSW,197,4.5,10.1,38,0.00,,,0.00,WSDL version 426,2013-02-04 14:38:00,
2013-02-04 08:43:00,54.3,29.2,29.12,SSE,166,4.7,9.6,38,0.00,,,0.00,WSDL version 426,2013-02-04 14:43:00,
2013-02-04 08:48:00,54.6,29.5,29.12,South,186,5.5,10.3,38,0.00,,,0.00,WSDL version 426,2013-02-04 14:48:00,
2013-02-04 08:53:00,54.7,29.6,29.12,South,190,5.8,10.3,38,0.00,,,0.00,WSDL version 426,2013-02-04 14:53:00,
2013-02-04 08:58:00,54.8,29.8,29.12,SSW,197,6.3,10.7,39,0.00,,,0.00,WSDL version 426,2013-02-04 14:58:00,
2013-02-04 09:03:00,55.0,30.5,29.12,SSW,193,4.8,10.7,39,0.00,,,0.00,WSDL version 426,2013-02-04 15:03:00,
2013-02-04 09:08:00,55.4,30.4,29.12,SSE,166,6.6,10.7,38,0.00,,,0.00,WSDL version 426,2013-02-04 15:08:00,
2013-02-04 09:13:00,55.7,30.5,29.15,SSW,200,5.1,10.7,38,0.00,,,0.00,WSDL version 426,2013-02-04 15:13:00,
2013-02-04 09:18:00,55.8,30.6,29.15,SSW,197,4.3,8.5,38,0.00,,,0.00,WSDL version 426,2013-02-04 15:18:00,
2013-02-04 09:23:00,55.9,30.7,29.15,SW,217,6.1,8.7,38,0.00,,,0.00,WSDL version 426,2013-02-04 15:23:00,
2013-02-04 09:28:00,56.0,30.8,29.15,SSW,210,5.2,8.7,38,0.00,,,0.00,WSDL version 426,2013-02-04 15:28:00,
2013-02-04 09:33:00,56.2,30.9,29.15,SSW,200,3.7,8.5,38,0.00,,,0.00,WSDL version 426,2013-02-04 15:33:00,
2013-02-04 09:38:00,56.3,31.1,29.15,South,190,4.5,8.5,38,0.00,,,0.00,WSDL version 426,2013-02-04 15:38:00,
2013-02-04 09:43:00,56.6,31.3,29.15,SSW,196,3.3,7.8,38,0.00,,,0.00,WSDL version 426,2013-02-04 15:43:00,
2013-02-04 09:48:00,56.9,31.6,29.15,SSW,198,5.2,7.6,38,0.00,,,0.00,WSDL version 426,2013-02-04 15:48:00,
2013-02-04 09:53:00,57.2,31.8,29.15,SSW,203,5.4,7.6,38,0.00,,,0.00,WSDL version 426,2013-02-04 15:53:00,
2013-02-04 09:58:00,57.5,32.1,29.15,SSW,205,5.2,9.2,38,0.00,,,0.00,WSDL version 426,2013-02-04 15:58:00,
2013-02-04 10:03:00,58.0,32.3,29.15,South,172,4.5,9.2,37,0.00,,,0.00,WSDL version 426,2013-02-04 16:03:00,
2013-02-04 10:08:00,58.1,32.0,29.15,SSW,203,4.7,7.6,37,0.00,,,0.00,WSDL version 426,2013-02-04 16:08:00,
2013-02-04 10:13:00,58.6,32.4,29.15,SSW,210,4.2,7.8,37,0.00,,,0.00,WSDL version 426,2013-02-04 16:13:00,
2013-02-04 10:18:00,59.0,32.4,29.15,SW,228,6.5,10.3,36,0.00,,,0.00,WSDL version 426,2013-02-04 16:18:00,
2013-02-04 10:23:00,59.4,32.5,29.15,SW,233,7.4,10.7,36,0.00,,,0.00,WSDL version 426,2013-02-04 16:23:00,
2013-02-04 10:28:00,59.8,32.8,29.15,SSW,203,5.6,10.7,36,0.00,,,0.00,WSDL version 426,2013-02-04 16:28:00,
2013-02-04 10:33:00,60.1,32.9,29.15,SSW,211,7.7,10.3,36,0.00,,,0.00,WSDL version 426,2013-02-04 16:33:00,
2013-02-04 10:38:00,60.2,32.6,29.15,SW,215,5.0,10.3,35,0.00,,,0.00,WSDL version 426,2013-02-04 16:38:00,
2013-02-04 10:43:00,60.7,33.0,29.15,SW,222,5.1,10.3,35,0.00,,,0.00,WSDL version 426,2013-02-04 16:43:00,
2013-02-04 10:48:00,61.0,33.1,29.15,SW,222,7.2,9.6,35,0.00,,,0.00,WSDL version 426,2013-02-04 16:48:00,
2013-02-04 10:53:00,61.2,33.4,29.15,SW,219,6.4,9.6,35,0.00,,,0.00,WSDL version 426,2013-02-04 16:53:00,
2013-02-04 10:58:00,61.6,33.5,29.15,SW,230,5.6,10.3,34,0.00,,,0.00,WSDL version 426,2013-02-04 16:58:00,
2013-02-04 11:03:00,61.9,33.3,29.15,South,188,5.5,10.3,34,0.00,,,0.00,WSDL version 426,2013-02-04 17:03:00,
2013-02-04 11:08:00,62.1,33.5,29.15,SW,230,5.7,10.3,34,0.00,,,0.00,WSDL version 426,2013-02-04 17:08:00,
2013-02-04 11:13:00,62.3,33.6,29.15,SW,228,6.3,10.7,34,0.00,,,0.00,WSDL version 426,2013-02-04 17:13:00,
2013-02-04 11:18:00,62.6,33.7,29.15,SW,225,6.3,10.7,34,0.00,,,0.00,WSDL version 426,2013-02-04 17:18:00,
2013-02-04 11:23:00,62.7,33.2,29.15,SW,225,6.0,10.1,33,0.00,,,0.00,WSDL version 426,2013-02-04 17:23:00,
2013-02-04 11:28:00,62.9,33.4,29.15,SW,233,5.3,11.2,33,0.00,,,0.00,WSDL version 426,2013-02-04 17:28:00,
2013-02-04 11:33:00,63.2,33.7,29.15,SW,217,6.8,12.5,33,0.00,,,0.00,WSDL version 426,2013-02-04 17:33:00,
2013-02-04 11:38:00,63.5,33.9,29.15,SW,233,5.6,12.5,33,0.00,,,0.00,WSDL version 426,2013-02-04 17:38:00,
2013-02-04 11:43:00,63.9,33.8,29.12,SW,233,6.5,10.5,32,0.00,,,0.00,WSDL version 426,2013-02-04 17:43:00,
2013-02-04 11:48:00,64.3,33.4,29.12,SW,235,5.7,8.7,31,0.00,,,0.00,WSDL version 426,2013-02-04 17:48:00,
2013-02-04 11:53:00,64.8,33.2,29.12,SSW,196,6.6,10.3,30,0.00,,,0.00,WSDL version 426,2013-02-04 17:53:00,
2013-02-04 11:58:00,64.9,32.4,29.12,West,270,8.6,10.7,29,0.00,,,0.00,WSDL version 426,2013-02-04 17:58:00,
2013-02-04 12:03:00,65.3,32.2,29.12,West,262,6.8,10.7,29,0.00,,,0.00,WSDL version 426,2013-02-04 18:03:00,
2013-02-04 12:08:00,65.5,32.4,29.12,WSW,240,5.8,8.1,29,0.00,,,0.00,WSDL version 426,2013-02-04 18:08:00,
2013-02-04 12:13:00,65.7,31.7,29.12,SW,225,5.1,11.0,28,0.00,,,0.00,WSDL version 426,2013-02-04 18:13:00,
2013-02-04 12:18:00,66.0,31.7,29.12,WSW,250,6.5,13.0,28,0.00,,,0.00,WSDL version 426,2013-02-04 18:18:00,
2013-02-04 12:23:00,66.3,31.4,29.12,NW,323,3.9,13.0,27,0.00,,,0.00,WSDL version 426,2013-02-04 18:23:00,
2013-02-04 12:28:00,66.5,31.5,29.12,WSW,248,6.9,9.8,27,0.00,,,0.00,WSDL version 426,2013-02-04 18:28:00,
2013-02-04 12:33:00,66.8,31.0,29.12,West,267,6.9,10.5,26,0.00,,,0.00,WSDL version 426,2013-02-04 18:33:00,
2013-02-04 12:38:00,67.0,31.0,29.12,SW,228,4.7,10.5,26,0.00,,,0.00,WSDL version 426,2013-02-04 18:38:00,
2013-02-04 12:43:00,67.1,31.1,29.12,West,263,8.1,13.2,26,0.00,,,0.00,WSDL version 426,2013-02-04 18:43:00,
2013-02-04 12:48:00,67.0,30.2,29.12,WSW,256,7.4,13.2,25,0.00,,,0.00,WSDL version 426,2013-02-04 18:48:00,
2013-02-04 12:53:00,67.2,30.3,29.12,NW,323,7.5,12.5,25,0.00,,,0.00,WSDL version 426,2013-02-04 18:53:00,
2013-02-04 12:58:00,67.5,30.5,29.09,West,270,6.7,12.5,25,0.00,,,0.00,WSDL version 426,2013-02-04 18:58:00,
2013-02-04 13:03:00,67.8,30.7,29.09,NW,315,9.6,12.8,25,0.00,,,0.00,WSDL version 426,2013-02-04 19:03:00,
2013-02-04 13:08:00,68.0,30.3,29.09,NW,315,5.0,12.8,24,0.00,,,0.00,WSDL version 426,2013-02-04 19:08:00,
2013-02-04 13:13:00,68.3,30.1,29.09,NW,309,7.8,10.1,24,0.00,,,0.00,WSDL version 426,2013-02-04 19:13:00,
2013-02-04 13:18:00,68.1,30.0,29.09,WNW,298,7.3,12.8,24,0.00,,,0.00,WSDL version 426,2013-02-04 19:18:00,
2013-02-04 13:23:00,68.2,29.7,29.09,West,275,8.8,12.8,23,0.00,,,0.00,WSDL version 426,2013-02-04 19:23:00,
2013-02-04 13:28:00,68.3,29.1,29.09,WNW,293,7.0,11.0,23,0.00,,,0.00,WSDL version 426,2013-02-04 19:28:00,
2013-02-04 13:33:00,68.9,29.6,29.09,NNW,348,4.2,10.3,23,0.00,,,0.00,WSDL version 426,2013-02-04 19:33:00,
2013-02-04 13:38:00,69.3,29.9,29.09,WSW,244,3.2,10.3,23,0.00,,,0.00,WSDL version 426,2013-02-04 19:38:00,
2013-02-04 13:44:00,69.5,30.1,29.09,NW,323,7.8,10.3,23,0.00,,,0.00,WSDL version 426,2013-02-04 19:44:00,
2013-02-04 13:49:00,69.6,30.0,29.09,NW,321,5.4,10.3,22,0.00,,,0.00,WSDL version 426,2013-02-04 19:49:00,
2013-02-04 13:54:00,70.4,29.8,29.09,North,5,4.4,9.4,22,0.00,,,0.00,WSDL version 426,2013-02-04 19:54:00,
2013-02-04 13:59:00,71.0,30.3,29.09,WNW,298,3.8,8.5,22,0.00,,,0.00,WSDL version 426,2013-02-04 19:59:00,
2013-02-04 14:04:00,71.1,30.4,29.09,NW,325,8.3,12.8,22,0.00,,,0.00,WSDL version 426,2013-02-04 20:04:00,
2013-02-04 14:09:00,70.7,30.0,29.09,WNW,295,8.0,12.8,22,0.00,,,0.00,WSDL version 426,2013-02-04 20:09:00,
2013-02-04 14:14:00,70.3,29.7,29.09,NW,320,6.9,13.9,22,0.00,,,0.00,WSDL version 426,2013-02-04 20:14:00,
2013-02-04 14:20:00,70.9,30.0,29.09,North,349,4.8,11.0,21,0.00,,,0.00,WSDL version 426,2013-02-04 20:20:00,
2013-02-04 14:25:00,71.4,28.5,29.09,NNW,335,6.1,11.0,22,0.00,,,0.00,WSDL version 426,2013-02-04 20:25:00,
2013-02-04 14:30:00,71.7,27.7,29.09,NNW,335,6.5,10.1,19,0.00,,,0.00,WSDL version 426,2013-02-04 20:30:00,
2013-02-04 14:36:00,71.6,27.2,29.09,NNW,329,9.2,12.5,19,0.00,,,0.00,WSDL version 426,2013-02-04 20:36:00,
2013-02-04 14:41:00,71.7,27.3,29.09,NNW,345,4.3,12.5,19,0.00,,,0.00,WSDL version 426,2013-02-04 20:41:00,
2013-02-04 14:46:00,72.7,28.1,29.09,North,3,6.3,9.4,19,0.00,,,0.00,WSDL version 426,2013-02-04 20:46:00,
2013-02-04 14:51:00,73.3,27.0,29.09,NNW,338,5.8,9.4,18,0.00,,,0.00,WSDL version 426,2013-02-04 20:51:00,
2013-02-04 14:56:00,74.0,27.3,29.09,North,360,5.8,8.9,18,0.00,,,0.00,WSDL version 426,2013-02-04 20:56:00,
2013-02-04 15:02:00,74.4,25.4,29.09,NNW,338,8.8,13.2,16,0.00,,,0.00,WSDL version 426,2013-02-04 21:02:00,
2013-02-04 15:07:00,74.4,24.5,29.09,North,3,7.9,13.2,13,0.00,,,0.00,WSDL version 426,2013-02-04 21:07:00,
2013-02-04 15:12:00,74.7,20.6,29.09,NNW,338,7.7,12.1,13,0.00,,,0.00,WSDL version 426,2013-02-04 21:12:00,
2013-02-04 15:17:00,75.2,21.1,29.09,North,5,7.3,12.1,13,0.00,,,0.00,WSDL version 426,2013-02-04 21:17:00,
2013-02-04 15:22:00,75.5,21.3,29.09,NNE,33,6.6,10.3,13,0.00,,,0.00,WSDL version 426,2013-02-04 21:22:00,
2013-02-04 15:27:00,75.3,21.1,29.09,NNW,346,7.2,13.2,13,0.00,,,0.00,WSDL version 426,2013-02-04 21:27:00,
2013-02-04 15:32:00,75.4,21.2,29.09,NNW,345,7.1,13.2,13,0.00,,,0.00,WSDL version 426,2013-02-04 21:32:00,
2013-02-04 15:37:00,75.3,21.1,29.09,North,3,7.4,12.8,13,0.00,,,0.00,WSDL version 426,2013-02-04 21:37:00,
2013-02-04 15:43:00,75.2,17.8,29.09,NNW,343,8.9,14.5,11,0.00,,,0.00,WSDL version 426,2013-02-04 21:43:00,
2013-02-04 15:49:00,75.0,18.5,29.09,North,357,7.9,14.5,13,0.00,,,0.00,WSDL version 426,2013-02-04 21:49:00,
2013-02-04 15:54:00,75.6,16.3,29.09,NNE,14,8.8,11.0,10,0.00,,,0.00,WSDL version 426,2013-02-04 21:54:00,
2013-02-04 15:59:00,75.0,16.6,29.09,North,10,8.5,12.3,11,0.00,,,0.00,WSDL version 426,2013-02-04 21:59:00,
2013-02-04 16:04:00,75.5,15.2,29.09,North,9,8.5,12.8,10,0.00,,,0.00,WSDL version 426,2013-02-04 22:04:00,
2013-02-04 16:09:00,75.1,16.2,29.09,North,360,6.5,12.8,11,0.00,,,0.00,WSDL version 426,2013-02-04 22:09:00,
2013-02-04 16:14:00,75.0,16.2,29.12,North,8,7.3,12.5,11,0.00,,,0.00,WSDL version 426,2013-02-04 22:14:00,
2013-02-04 16:19:00,74.9,16.9,29.12,NNW,340,7.6,12.5,11,0.00,,,0.00,WSDL version 426,2013-02-04 22:19:00,
2013-02-04 16:24:00,75.1,15.9,29.12,North,8,7.0,10.7,11,0.00,,,0.00,WSDL version 426,2013-02-04 22:24:00,
2013-02-04 16:29:00,73.9,16.1,29.12,NNE,17,9.0,12.1,11,0.00,,,0.00,WSDL version 426,2013-02-04 22:29:00,
2013-02-04 16:34:00,73.3,15.7,29.12,NNE,20,6.1,12.1,11,0.00,,,0.00,WSDL version 426,2013-02-04 22:34:00,
2013-02-04 16:39:00,73.6,15.9,29.12,North,8,6.4,11.0,11,0.00,,,0.00,WSDL version 426,2013-02-04 22:39:00,
2013-02-04 16:44:00,73.6,15.9,29.12,NNE,15,6.5,11.0,11,0.00,,,0.00,WSDL version 426,2013-02-04 22:44:00,
2013-02-04 16:49:00,74.2,16.3,29.12,NNE,18,5.4,10.3,11,0.00,,,0.00,WSDL version 426,2013-02-04 22:49:00,
2013-02-04 16:54:00,74.3,16.4,29.12,North,6,6.0,9.6,11,0.00,,,0.00,WSDL version 426,2013-02-04 22:54:00,
2013-02-04 16:59:00,73.3,15.6,29.12,North,354,5.2,11.0,11,0.00,,,0.00,WSDL version 426,2013-02-04 22:59:00,
2013-02-04 17:04:00,72.8,15.3,29.12,North,357,7.1,11.0,11,0.00,,,0.00,WSDL version 426,2013-02-04 23:04:00,
2013-02-04 17:09:00,73.0,15.4,29.12,NNW,338,7.9,11.0,11,0.00,,,0.00,WSDL version 426,2013-02-04 23:09:00,
2013-02-04 17:14:00,72.5,15.0,29.12,North,360,7.1,11.0,11,0.00,,,0.00,WSDL version 426,2013-02-04 23:14:00,
2013-02-04 17:19:00,71.7,14.4,29.12,North,354,6.8,9.8,11,0.00,,,0.00,WSDL version 426,2013-02-04 23:19:00,
2013-02-04 17:24:00,71.0,15.8,29.12,North,358,5.9,8.7,14,0.00,,,0.00,WSDL version 426,2013-02-04 23:24:00,
2013-02-04 17:29:00,69.0,19.2,29.12,NNE,13,4.6,8.7,15,0.00,,,0.00,WSDL version 426,2013-02-04 23:29:00,
2013-02-04 17:34:00,66.8,17.7,29.12,NNE,18,6.3,8.1,15,0.00,,,0.00,WSDL version 426,2013-02-04 23:34:00,
2013-02-04 17:39:00,65.1,16.3,29.12,North,6,4.2,7.4,15,-99.99,,,-99.99,WSDL version 426,2013-02-04 23:39:00,
2013-02-04 17:44:00,63.7,16.7,29.15,North,3,4.6,7.2,16,-99.99,,,-99.99,WSDL version 426,2013-02-04 23:44:00,
2013-02-04 17:49:00,62.6,19.0,29.15,NNE,13,3.9,7.2,19,-99.99,,,-99.99,WSDL version 426,2013-02-04 23:49:00,
2013-02-04 17:54:00,61.7,19.0,29.15,North,6,4.4,5.8,19,0.00,,,0.00,WSDL version 426,2013-02-04 23:54:00,
2013-02-04 17:59:00,60.8,21.0,29.15,NNW,345,4.0,6.3,22,-99.99,,,-99.99,WSDL version 426,2013-02-04 23:59:00,
2013-02-04 18:04:00,60.1,22.4,29.15,North,350,4.9,7.6,24,0.00,,,0.00,WSDL version 426,2013-02-05 00:04:00,
2013-02-04 18:09:00,59.5,22.7,29.15,North,354,4.0,7.6,24,0.00,,,0.00,WSDL version 426,2013-02-05 00:09:00,
2013-02-04 18:14:00,58.9,23.1,29.15,North,360,4.2,7.4,25,0.00,,,0.00,WSDL version 426,2013-02-05 00:14:00,
2013-02-04 18:19:00,58.4,22.9,29.15,North,360,3.7,6.0,26,0.00,,,0.00,WSDL version 426,2013-02-05 00:19:00,
2013-02-04 18:24:00,58.0,23.3,29.15,North,3,4.0,6.0,26,0.00,,,0.00,WSDL version 426,2013-02-05 00:24:00,
2013-02-04 18:29:00,57.7,23.0,29.15,North,3,3.5,6.0,26,0.00,,,0.00,WSDL version 426,2013-02-05 00:29:00,
2013-02-04 18:34:00,57.3,22.7,29.15,North,3,3.7,5.4,26,0.00,,,0.00,WSDL version 426,2013-02-05 00:34:00,
2013-02-04 18:39:00,56.9,23.3,29.15,North,356,2.9,5.4,27,0.00,,,0.00,WSDL version 426,2013-02-05 00:39:00,
2013-02-04 18:44:00,56.5,22.9,29.18,NNW,345,3.1,4.7,27,0.00,,,0.00,WSDL version 426,2013-02-05 00:44:00,
2013-02-04 18:49:00,56.1,22.6,29.18,North,3,3.0,4.7,27,0.00,,,0.00,WSDL version 426,2013-02-05 00:49:00,
2013-02-04 18:54:00,55.7,22.8,29.18,NNW,345,2.4,4.0,28,0.00,,,0.00,WSDL version 426,2013-02-05 00:54:00,
2013-02-04 18:59:00,55.2,22.7,29.18,NNW,338,2.2,3.8,28,0.00,,,0.00,WSDL version 426,2013-02-05 00:59:00,
2013-02-04 19:04:00,54.9,22.8,29.18,NNW,338,1.6,3.8,29,0.00,,,0.00,WSDL version 426,2013-02-05 01:04:00,
2013-02-04 19:09:00,54.7,23.1,29.18,North,353,1.1,3.1,29,0.00,,,0.00,WSDL version 426,2013-02-05 01:09:00,
2013-02-04 19:14:00,54.3,22.7,29.18,NNW,333,1.7,3.1,29,0.00,,,0.00,WSDL version 426,2013-02-05 01:14:00,
2013-02-04 19:19:00,54.0,22.8,29.18,NNW,348,1.0,3.1,30,0.00,,,0.00,WSDL version 426,2013-02-05 01:19:00,
2013-02-04 19:24:00,53.8,23.1,29.18,NW,315,1.4,3.1,30,0.00,,,0.00,WSDL version 426,2013-02-05 01:24:00,
2013-02-04 19:29:00,53.7,23.0,29.18,NNW,338,1.5,3.1,30,0.00,,,0.00,WSDL version 426,2013-02-05 01:29:00,
2013-02-04 19:34:00,53.4,22.9,29.18,North,2,2.5,3.4,30,0.00,,,0.00,WSDL version 426,2013-02-05 01:34:00,
2013-02-04 19:39:00,53.1,23.1,29.18,NNW,340,2.2,3.4,31,0.00,,,0.00,WSDL version 426,2013-02-05 01:39:00,
2013-02-04 19:44:00,52.9,23.1,29.18,North,360,2.5,3.6,31,0.00,,,0.00,WSDL version 426,2013-02-05 01:44:00,
2013-02-04 19:49:00,52.6,22.8,29.18,North,354,3.6,4.9,31,0.00,,,0.00,WSDL version 426,2013-02-05 01:49:00,
2013-02-04 19:54:00,52.5,23.2,29.18,North,352,3.3,4.9,32,0.00,,,0.00,WSDL version 426,2013-02-05 01:54:00,
2013-02-04 19:59:00,52.2,23.3,29.18,North,8,2.9,4.3,32,0.00,,,0.00,WSDL version 426,2013-02-05 01:59:00,
2013-02-04 20:04:00,52.0,23.1,29.18,NNW,343,3.0,4.3,32,0.00,,,0.00,WSDL version 426,2013-02-05 02:04:00,
2013-02-04 20:09:00,51.7,23.5,29.18,North,8,3.2,4.3,33,0.00,,,0.00,WSDL version 426,2013-02-05 02:09:00,
2013-02-04 20:14:00,51.6,24.0,29.21,North,357,4.1,7.2,34,0.00,,,0.00,WSDL version 426,2013-02-05 02:14:00,
2013-02-04 20:19:00,51.4,24.1,29.21,North,357,3.5,7.2,35,0.00,,,0.00,WSDL version 426,2013-02-05 02:19:00,
2013-02-04 20:24:00,51.3,25.0,29.21,North,8,4.5,7.2,36,0.00,,,0.00,WSDL version 426,2013-02-05 02:24:00,
2013-02-04 20:29:00,51.2,25.2,29.21,NNE,17,3.8,7.2,36,0.00,,,0.00,WSDL version 426,2013-02-05 02:29:00,
2013-02-04 20:34:00,51.0,25.0,29.21,North,353,3.5,6.3,36,0.00,,,0.00,WSDL version 426,2013-02-05 02:34:00,
2013-02-04 20:39:00,50.8,24.8,29.21,North,355,3.0,5.4,36,0.00,,,0.00,WSDL version 426,2013-02-05 02:39:00,
2013-02-04 20:44:00,50.5,24.5,29.21,North,356,3.3,5.6,36,0.00,,,0.00,WSDL version 426,2013-02-05 02:44:00,
2013-02-04 20:49:00,50.2,24.3,29.21,North,360,3.5,5.6,36,0.00,,,0.00,WSDL version 426,2013-02-05 02:49:00,
2013-02-04 20:54:00,50.1,24.9,29.21,North,11,3.7,5.6,37,0.00,,,0.00,WSDL version 426,2013-02-05 02:54:00,
2013-02-04 20:59:00,50.0,24.8,29.21,North,358,3.9,6.3,37,0.00,,,0.00,WSDL version 426,2013-02-05 02:59:00,
2013-02-04 21:04:00,50.0,24.9,29.21,NNE,20,4.1,7.8,38,0.00,,,0.00,WSDL version 426,2013-02-05 03:04:00,
2013-02-04 21:09:00,50.0,25.4,29.21,NNE,23,4.2,7.8,38,0.00,,,0.00,WSDL version 426,2013-02-05 03:09:00,
2013-02-04 21:14:00,50.0,25.4,29.21,NNE,17,3.9,7.2,38,0.00,,,0.00,WSDL version 426,2013-02-05 03:14:00,
2013-02-04 21:19:00,49.8,25.2,29.21,NNE,23,3.3,6.3,38,0.00,,,0.00,WSDL version 426,2013-02-05 03:19:00,
2013-02-04 21:24:00,49.4,24.8,29.21,NNE,31,2.4,5.6,38,0.00,,,0.00,WSDL version 426,2013-02-05 03:24:00,
2013-02-04 21:29:00,48.9,24.4,29.21,NNE,23,2.5,3.8,38,0.00,,,0.00,WSDL version 426,2013-02-05 03:29:00,
2013-02-04 21:34:00,48.7,24.5,29.21,NNE,23,2.6,4.0,39,0.00,,,0.00,WSDL version 426,2013-02-05 03:34:00,
2013-02-04 21:39:00,48.6,24.8,29.21,NNE,14,2.5,4.0,39,0.00,,,0.00,WSDL version 426,2013-02-05 03:39:00,
2013-02-04 21:44:00,48.2,24.4,29.21,NE,45,0.6,3.8,39,0.00,,,0.00,WSDL version 426,2013-02-05 03:44:00,
2013-02-04 21:49:00,47.7,24.0,29.21,NE,45,0.0,2.7,39,0.00,,,0.00,WSDL version 426,2013-02-05 03:49:00,
2013-02-04 21:54:00,47.2,23.7,29.21,NE,45,0.0,0.0,40,0.00,,,0.00,WSDL version 426,2013-02-05 03:54:00,
2013-02-04 21:59:00,46.9,23.9,29.21,NE,45,0.0,0.0,40,0.00,,,0.00,WSDL version 426,2013-02-05 03:59:00,
2013-02-04 22:04:00,46.5,23.4,29.21,NE,45,0.0,0.0,40,0.00,,,0.00,WSDL version 426,2013-02-05 04:04:00,
2013-02-04 22:09:00,45.8,23.0,29.21,NE,45,0.0,0.0,41,0.00,,,0.00,WSDL version 426,2013-02-05 04:09:00,
2013-02-04 22:14:00,45.3,23.0,29.21,NE,45,0.0,0.0,41,0.00,,,0.00,WSDL version 426,2013-02-05 04:14:00,
2013-02-04 22:19:00,45.0,22.7,29.21,NE,45,0.0,0.0,41,0.00,,,0.00,WSDL version 426,2013-02-05 04:19:00,
2013-02-04 22:24:00,44.2,22.6,29.21,NE,45,0.0,0.0,42,0.00,,,0.00,WSDL version 426,2013-02-05 04:24:00,
2013-02-04 22:29:00,43.4,22.0,29.21,NE,45,0.0,1.1,43,0.00,,,0.00,WSDL version 426,2013-02-05 04:29:00,
2013-02-04 22:34:00,42.9,22.1,29.21,NE,45,0.0,1.1,43,0.00,,,0.00,WSDL version 426,2013-02-05 04:34:00,
2013-02-04 22:39:00,42.3,22.3,29.21,ESE,113,0.0,0.0,45,0.00,,,0.00,WSDL version 426,2013-02-05 04:39:00,
2013-02-04 22:44:00,41.8,22.3,29.21,ESE,113,0.4,1.6,46,0.00,,,0.00,WSDL version 426,2013-02-05 04:44:00,
2013-02-04 22:49:00,41.7,23.1,29.21,NNW,338,1.5,2.5,48,0.00,,,0.00,WSDL version 426,2013-02-05 04:49:00,
2013-02-04 22:54:00,41.7,23.5,29.21,NNW,338,0.0,2.5,48,0.00,,,0.00,WSDL version 426,2013-02-05 04:54:00,
2013-02-04 22:59:00,41.6,23.4,29.23,WNW,293,2.1,2.7,48,0.00,,,0.00,WSDL version 426,2013-02-05 04:59:00,
2013-02-04 23:00:00,41.6,23.5,29.23,WNW,298,2.3,2.9,49,0.00,,,0.00,WSDL version 426,2013-02-05 05:00:00,
2013-02-04 23:02:00,41.5,23.8,29.23,WNW,293,2.7,3.1,50,0.00,,,0.00,WSDL version 426,2013-02-05 05:02:00,
2013-02-04 23:07:00,41.7,24.9,29.23,WNW,293,1.9,3.1,51,0.00,,,0.00,WSDL version 426,2013-02-05 05:07:00,
2013-02-04 23:12:00,41.7,24.6,29.23,WNW,293,0.0,3.1,50,0.00,,,0.00,WSDL version 426,2013-02-05 05:12:00,
2013-02-04 23:17:00,41.6,24.4,29.23,WNW,293,0.0,0.0,50,0.00,,,0.00,WSDL version 426,2013-02-05 05:17:00,
2013-02-04 23:22:00,41.2,24.0,29.23,WNW,293,0.0,0.0,50,0.00,,,0.00,WSDL version 426,2013-02-05 05:22:00,
2013-02-04 23:27:00,40.6,23.9,29.23,WNW,293,0.0,0.0,51,0.00,,,0.00,WSDL version 426,2013-02-05 05:27:00,
2013-02-04 23:32:00,40.0,23.5,29.23,WNW,293,0.0,0.0,51,0.00,,,0.00,WSDL version 426,2013-02-05 05:32:00,
2013-02-04 23:37:00,39.7,23.1,29.23,WNW,293,0.0,0.0,51,0.00,,,0.00,WSDL version 426,2013-02-05 05:37:00,
2013-02-04 23:42:00,39.6,22.9,29.23,WNW,293,0.0,0.0,51,0.00,,,0.00,WSDL version 426,2013-02-05 05:42:00,
2013-02-04 23:47:00,39.4,22.7,29.23,WNW,293,0.0,0.0,51,0.00,,,0.00,WSDL version 426,2013-02-05 05:47:00,
2013-02-04 23:52:00,39.1,22.7,29.23,WNW,293,0.0,0.0,52,0.00,,,0.00,WSDL version 426,2013-02-05 05:52:00,
2013-02-04 23:57:00,38.9,22.8,29.23,WNW,298,0.6,2.0,53,0.00,,,0.00,WSDL version 426,2013-02-05 05:57:00,